Location: McFarlands Corners
(41.4117°N, 81.3382°W)
Time: 07:16:31
(UTC+00:00)

Tiros 1 - Pass Details

Date: 23 February 2026
Orbit: 618 x 649 km, 48.4° (Epoch: 9 March)

Event Time Altitude Azimuth Distance (km) Brightness Sun altitude
Rises 13:16:14 0° 262° (W) 2,921 10.0 11.2°
Reaches altitude 10° 13:18:38 10° 269° (W) 2,009 9.2 11.6°
Maximum altitude 13:23:05 46° 343° (NNW) 845 7.6 12.3°
Drops below altitude 10° 13:27:31 10° 57° (ENE) 1,994 10.2 13.1°
Sets 13:29:54 0° 64° (ENE) 2,898 11.1 13.5°
